Terminal Aerodrome Forecast
Issued by NWS

Home | Current Version | Previous Version | Text Only | Print | Product List | Glossary On
Versions: 1 2 3 4 5 6 7 8 9 10 11 12 13 14 15 16 17 18 19
000
FTUS43 KDDC 211127
TAFHYS
TAF
KHYS 211127Z 2112/2212 05011KT P6SM -RA SCT010 OVC030
     FM211400 03010KT P6SM -RA OVC010
     FM220200 03005KT P6SM OVC010=

USA.gov is the U.S. government's official web portal to all federal, state and local government web resources and services.